Stündliche Wetter Abulyaisovo

Heute, 5 August, Donnerstag

Zeit Temperatur Niederschläge Wind Luftdruck Luftfeuchtigkeit
00:00 +26°C° 0 mm 3 m/S 739 mmHg 41%
01:00 +25°C° 0 mm 2 m/S 739 mmHg 42%
02:00 +25°C° 0 mm 2 m/S 738 mmHg 43%
03:00 +24°C° 0 mm 1 m/S 738 mmHg 44%
04:00 +24°C° 0 mm 1 m/S 738 mmHg 45%
05:00 +26°C° 0 mm 1 m/S 738 mmHg 41%
06:00 +27°C° 0 mm 2 m/S 738 mmHg 38%
07:00 +29°C° 0 mm 2 m/S 738 mmHg 34%
08:00 +32°C° 0 mm 2 m/S 738 mmHg 29%
09:00 +35°C° 0 mm 3 m/S 738 mmHg 23%
10:00 +38°C° 0 mm 3 m/S 737 mmHg 19%
11:00 +38°C° 0 mm 4 m/S 737 mmHg 18%
12:00 +40°C° 0 mm 4 m/S 737 mmHg 16%
13:00 +41°C° 0 mm 5 m/S 737 mmHg 15%
14:00 +41°C° 0 mm 5 m/S 737 mmHg 15%
15:00 +41°C° 0 mm 5 m/S 737 mmHg 15%
16:00 +41°C° 0 mm 5 m/S 736 mmHg 16%
17:00 +37°C° 0.1 mm 5 m/S 736 mmHg 24%
18:00 +34°C° 0.1 mm 4 m/S 737 mmHg 32%
19:00 +30°C° 0.1 mm 4 m/S 737 mmHg 41%
20:00 +27°C° 0.5 mm 3 m/S 737 mmHg 50%
21:00 +25°C° 0.5 mm 2 m/S 737 mmHg 60%
22:00 +23°C° 0.5 mm 1 m/S 737 mmHg 69%
23:00 +22°C° 0 mm 1 m/S 737 mmHg 70%

Morgen, 6 August, Freitag

Zeit Temperatur Niederschläge Wind Luftdruck Luftfeuchtigkeit
00:00 +22°C° 0 mm 1 m/S 737 mmHg 71%
01:00 +22°C° 0 mm 1 m/S 737 mmHg 72%
02:00 +21°C° 0 mm 1 m/S 737 mmHg 76%
03:00 +20°C° 0 mm 1 m/S 737 mmHg 80%
04:00 +18°C° 0 mm 2 m/S 737 mmHg 83%
05:00 +19°C° 0 mm 2 m/S 737 mmHg 81%
06:00 +20°C° 0 mm 2 m/S 737 mmHg 79%
07:00 +21°C° 0 mm 3 m/S 738 mmHg 77%
08:00 +24°C° 0 mm 3 m/S 738 mmHg 65%
09:00 +26°C° 0 mm 4 m/S 738 mmHg 54%
10:00 +28°C° 0 mm 5 m/S 738 mmHg 42%
11:00 +29°C° 0 mm 5 m/S 738 mmHg 36%
12:00 +32°C° 0 mm 6 m/S 738 mmHg 30%
13:00 +33°C° 0 mm 6 m/S 738 mmHg 24%
14:00 +33°C° 0 mm 6 m/S 738 mmHg 23%
15:00 +33°C° 0 mm 6 m/S 738 mmHg 23%
16:00 +33°C° 0 mm 6 m/S 738 mmHg 22%
17:00 +32°C° 0 mm 6 m/S 738 mmHg 24%
18:00 +29°C° 0 mm 6 m/S 738 mmHg 27%
19:00 +28°C° 0 mm 5 m/S 738 mmHg 30%
20:00 +26°C° 0 mm 5 m/S 738 mmHg 37%
21:00 +23°C° 0 mm 4 m/S 739 mmHg 44%
22:00 +21°C° 0 mm 3 m/S 739 mmHg 51%
23:00 +20°C° 0 mm 3 m/S 739 mmHg 55%

übermorgen, 7 August, Samstag

Zeit Temperatur Niederschläge Wind Luftdruck Luftfeuchtigkeit
00:00 +18°C° 0 mm 3 m/S 739 mmHg 58%
01:00 +17°C° 0 mm 2 m/S 740 mmHg 62%
02:00 +17°C° 0 mm 2 m/S 740 mmHg 63%
03:00 +16°C° 0 mm 2 m/S 740 mmHg 64%
04:00 +16°C° 0 mm 2 m/S 740 mmHg 65%
05:00 +17°C° 0 mm 2 m/S 740 mmHg 59%
06:00 +19°C° 0 mm 2 m/S 741 mmHg 53%
07:00 +20°C° 0 mm 2 m/S 741 mmHg 47%
08:00 +23°C° 0 mm 2 m/S 741 mmHg 39%
09:00 +25°C° 0 mm 2 m/S 741 mmHg 31%
10:00 +27°C° 0 mm 3 m/S 741 mmHg 23%
11:00 +28°C° 0 mm 3 m/S 741 mmHg 20%
12:00 +30°C° 0 mm 4 m/S 740 mmHg 17%
13:00 +32°C° 0 mm 5 m/S 740 mmHg 13%
14:00 +32°C° 0 mm 5 m/S 740 mmHg 13%
15:00 +32°C° 0 mm 5 m/S 740 mmHg 13%
16:00 +32°C° 0 mm 6 m/S 740 mmHg 13%
17:00 +30°C° 0 mm 5 m/S 740 mmHg 16%
18:00 +29°C° 0 mm 5 m/S 740 mmHg 18%
19:00 +27°C° 0 mm 5 m/S 741 mmHg 20%
20:00 +25°C° 0 mm 4 m/S 741 mmHg 27%
21:00 +22°C° 0 mm 3 m/S 741 mmHg 33%
22:00 +19°C° 0 mm 3 m/S 741 mmHg 39%
23:00 +18°C° 0 mm 2 m/S 741 mmHg 42%

8 August, Sonntag

Zeit Temperatur Niederschläge Wind Luftdruck Luftfeuchtigkeit
00:00 +18°C° 0 mm 2 m/S 741 mmHg 45%
01:00 +17°C° 0 mm 2 m/S 741 mmHg 49%
02:00 +16°C° 0 mm 2 m/S 742 mmHg 51%
03:00 +16°C° 0 mm 2 m/S 742 mmHg 54%
04:00 +15°C° 0 mm 2 m/S 742 mmHg 56%
05:00 +17°C° 0 mm 2 m/S 742 mmHg 52%
06:00 +18°C° 0 mm 2 m/S 743 mmHg 47%
07:00 +20°C° 0 mm 3 m/S 743 mmHg 42%
08:00 +22°C° 0 mm 3 m/S 743 mmHg 35%
09:00 +25°C° 0 mm 4 m/S 743 mmHg 28%
10:00 +27°C° 0 mm 5 m/S 743 mmHg 21%
11:00 +28°C° 0 mm 5 m/S 742 mmHg 19%
12:00 +29°C° 0 mm 5 m/S 742 mmHg 17%
13:00 +32°C° 0 mm 5 m/S 742 mmHg 15%
14:00 +32°C° 0 mm 5 m/S 742 mmHg 15%
15:00 +32°C° 0 mm 5 m/S 742 mmHg 15%
16:00 +33°C° 0 mm 5 m/S 742 mmHg 15%
17:00 +30°C° 0 mm 5 m/S 742 mmHg 18%
18:00 +29°C° 0 mm 5 m/S 742 mmHg 20%
19:00 +28°C° 0 mm 4 m/S 742 mmHg 22%
20:00 +25°C° 0 mm 4 m/S 742 mmHg 29%
21:00 +21°C° 0 mm 3 m/S 742 mmHg 37%
22:00 +18°C° 0 mm 3 m/S 743 mmHg 44%
23:00 +18°C° 0 mm 3 m/S 743 mmHg 48%

9 August, Montag

Zeit Temperatur Niederschläge Wind Luftdruck Luftfeuchtigkeit
00:00 +17°C° 0 mm 3 m/S 743 mmHg 51%
01:00 +16°C° 0 mm 2 m/S 743 mmHg 55%
02:00 +15°C° 0 mm 2 m/S 743 mmHg 57%
03:00 +15°C° 0 mm 2 m/S 743 mmHg 59%
04:00 +14°C° 0 mm 1 m/S 743 mmHg 62%
05:00 +16°C° 0 mm 1 m/S 743 mmHg 56%
06:00 +19°C° 0 mm 1 m/S 744 mmHg 51%
07:00 +20°C° 0 mm 1 m/S 744 mmHg 45%
08:00 +23°C° 0 mm 1 m/S 744 mmHg 39%
09:00 +25°C° 0 mm 1 m/S 744 mmHg 33%
10:00 +26°C° 0 mm 0 m/S 744 mmHg 26%
11:00 +29°C° 0 mm 1 m/S 743 mmHg 23%
12:00 +30°C° 0 mm 2 m/S 743 mmHg 20%
13:00 +31°C° 0 mm 2 m/S 743 mmHg 17%
14:00 +31°C° 0 mm 3 m/S 743 mmHg 18%
15:00 +31°C° 0 mm 3 m/S 743 mmHg 19%
16:00 +31°C° 0 mm 3 m/S 743 mmHg 20%
17:00 +30°C° 0 mm 3 m/S 743 mmHg 23%
18:00 +29°C° 0 mm 3 m/S 743 mmHg 26%
19:00 +28°C° 0 mm 3 m/S 743 mmHg 29%
20:00 +26°C° 0 mm 3 m/S 743 mmHg 36%
21:00 +24°C° 0 mm 3 m/S 743 mmHg 42%
22:00 +21°C° 0 mm 3 m/S 743 mmHg 49%
23:00 +20°C° 0 mm 2 m/S 743 mmHg 51%

10 August, Dienstag

Zeit Temperatur Niederschläge Wind Luftdruck Luftfeuchtigkeit
00:00 +19°C° 0 mm 2 m/S 743 mmHg 52%
01:00 +19°C° 0 mm 2 m/S 743 mmHg 54%
02:00 +18°C° 0 mm 2 m/S 743 mmHg 56%
03:00 +18°C° 0 mm 2 m/S 743 mmHg 57%
04:00 +18°C° 0 mm 2 m/S 743 mmHg 59%
05:00 +19°C° 0 mm 2 m/S 744 mmHg 54%
06:00 +22°C° 0 mm 1 m/S 744 mmHg 50%
07:00 +23°C° 0 mm 1 m/S 744 mmHg 45%
08:00 +26°C° 0 mm 2 m/S 744 mmHg 39%
09:00 +28°C° 0 mm 2 m/S 744 mmHg 33%
10:00 +30°C° 0 mm 2 m/S 743 mmHg 27%
11:00 +32°C° 0 mm 2 m/S 743 mmHg 25%
12:00 +33°C° 0 mm 1 m/S 743 mmHg 22%
13:00 +35°C° 0 mm 1 m/S 742 mmHg 20%
14:00 +35°C° 0 mm 1 m/S 742 mmHg 20%
15:00 +36°C° 0 mm 2 m/S 742 mmHg 19%
16:00 +36°C° 0 mm 2 m/S 741 mmHg 19%
17:00 +35°C° 0 mm 2 m/S 741 mmHg 21%
18:00 +34°C° 0 mm 2 m/S 741 mmHg 23%
19:00 +31°C° 0 mm 2 m/S 741 mmHg 25%
20:00 +29°C° 0 mm 2 m/S 741 mmHg 30%
21:00 +27°C° 0 mm 2 m/S 741 mmHg 34%
22:00 +24°C° 0 mm 2 m/S 741 mmHg 39%
23:00 +24°C° 0 mm 1 m/S 741 mmHg 40%
Mehr zeigen

Wir brauchen deine Erlaubnis

Meteoprog und unser Service Anbieter werden persönliche Daten aufbewahren, so wie Cookies, Geräte Bezeichnung oder ähnliche Technologien von deinem Gerät und Prozess, so wie Persönliche Daten Inhalte und Werbungen, genauso wie social Media und den Verkehr zu analysieren.

  • Aufbewahrung und/oder Zugang zu deiner Geräte Informationen.

    Cookies, Geräte Bezeichnung oder andere Informationen, können aufbewahrt oder Zugang zu deinem Gerät erhalten, für den Grund, der oben angegeben wird.

  • Personalisierte Werbung und Inhalte, Messungen, Einblick in das Publikum und Produkt Entwicklung.

    Werbungen und Inhalte können personalisiert werden, basierend auf ein Profil. Mehr Daten können besser personalisierte Werbungen und Inhalte hinzufügen. Werbung und Inhalte können gezeigt und gemessen werden. Einblicke über das Publikum, welche die Werbung gesehen haben und den Inhalt, können abgeleitet werden. So wie Daten können genutzt werden, um es zu verbessern oder die Benutzer Erfahrung zu verbessern das System und die Software.

Wenn du “Ich stimme zu” klickst, erlaubst du uns, die Cookies zu benutzen die Geräte Bezeichnung, den Web oder ähnliche Technologien zu benutzen. Deine Settings, können in deinem Gerät bei deinem Browser geändert werden.

Für den bestimmten Zweck, berechtigten Interessen beruhen darauf, mehr als auf den Inhalt. Du kannst mehr darüber in unseren Privaten und Cookie Politik lesen.